Flag for Syria Weather past 2 weeks in Damascus, Syria

Now
109 °F

Sunny.


Feels Like: 109 °F
Forecast: 74 / 104 °F
Wind: No wind

Location: Damascus Int. Airport

Current Time: Aug 2, 2015 at 6:04:47 PM

Latest Report: Aug 2, 2015 at 5:00 PM


Visibility: 10 mi

Pressure: 29.83 "Hg (27.69 "Hg at 689m altitude)

Humidity: 18%

Dew point: 57 °F

Location of DamascusLocation

Historic Weather in Damascus — Graph

°F

Damascus temperature yesterday

Maximum temperature yesterday: 104 °F (at 4:00 PM)
Minimum temperature yesterday: 64 °F (at 6:00 AM)
Average temperature yesterday: 85 °F

Past Weeks' High & Low Weather Summary

 TemperatureHumidityPressure
High109 °F (Aug 2, 4:00 PM)100% (Jul 28, 10:00 PM)29.92 "Hg (Jul 28, 10:00 PM)
Low59 °F (Jul 23, 6:00 AM)6% (Jul 22, 7:00 PM)29.65 "Hg (Jul 19, 5:00 PM)
Average85 °F35%29.78 "Hg
* Reported Jul 18 5:00 PM — Aug 2 5:00 PM, Damascus, Weather by CustomWeather, © 2015

Note: Actual official high and low records may vary slightly from our data, if they occured in-between our weather recording intervals... More about our weather records

Advertising

Damascus weather history for previous 24 hours

 ConditionsComfort  
Time TempWeatherWind HumidityBarometerVisibility
5:00 PM
Sun, Aug 2
109 °FSunny.No wind18%29.83 "Hg10 mi
4:00 PM109 °FSunny.No wind18%29.86 "Hg10 mi
3:00 PM108 °FSunny.No wind18%29.86 "Hg10 mi
2:00 PM104 °FSunny.No wind20%29.89 "Hg10 mi
1:00 PM102 °FSunny.No wind21%29.92 "Hg10 mi
12:00 PM99 °FSunny.No wind25%29.92 "Hg10 mi
11:00 AM97 °FSunny.No wind27%29.92 "Hg10 mi
10:00 AM93 °FSunny.No wind30%29.92 "Hg10 mi
9:00 AM86 °FSunny.No wind27%29.92 "Hg10 mi
8:00 AM79 °FSunny.No wind34%29.92 "Hg10 mi
7:00 AM68 °FSunny.No wind49%29.92 "Hg10 mi
6:00 AM70 °FClear.No wind46%29.89 "Hg10 mi
5:00 AM72 °FClear.No wind47%29.89 "Hg10 mi
4:00 AM72 °FClear.No wind50%29.89 "Hg10 mi
3:00 AM73 °FClear.No wind50%29.89 "Hg10 mi
2:00 AM75 °FClear.No wind47%29.86 "Hg10 mi
1:00 AM77 °FClear.No wind39%29.89 "Hg10 mi
12:00 AM82 °FClear.No wind37%29.89 "Hg10 mi
11:00 PM
Sat, Aug 1
84 °FClear.No wind35%29.86 "Hg10 mi
10:00 PM86 °FClear.No wind31%29.86 "Hg10 mi
9:00 PM91 °FClear.No wind30%29.83 "Hg10 mi
8:00 PM93 °FSunny.No wind20%29.80 "Hg10 mi
7:00 PM99 °FSunny.No wind17%29.80 "Hg10 mi
6:00 PM100 °FSunny.No wind16%29.77 "Hg10 mi
Weather by CustomWeather, © 2015

See weather overviewHow to use our weather pages